Location: Luxembourg
(49.6117°N, 6.1300°E)
Time: 12:59:52
(UTC+01:00)

Envisat - Pass Details

Date: 02 February 2019
Orbit: 764 x 766 km, 98.2° (Epoch: 23 February)

Event Time Altitude Azimuth Distance (km) Brightness Sun altitude
Rises 21:01:16 0° 227° (SW) 3,225 6.6 -33.9°
Reaches altitude 10° 21:06:11 10° 269° (W) 2,307 6.2 -34.6°
Maximum altitude 21:06:50 10° 277° (W) 2,293 6.2 -34.7°
Drops below altitude 10° 21:07:29 10° 284° (WNW) 2,309 6.3 -34.8°
Sets 21:12:27 0° 327° (NNW) 3,244 6.9 -35.6°
